This is the latest recevied weather packets stored in our database for station/object HS6PNA-1. If no packets are shown the sender has not sent any weather packets the latest 10 day(s).
| Time | Temp. | Humidity | Pressure | Rain* | Wind** | Luminosity | Snow |
|---|---|---|---|---|---|---|---|
| 1777613131 | 36.67° C | 46% | 1005 hPa | - | - | 319 W/m² | - |
| 1777612095 | 35.56° C | 49% | 1006 hPa | - | - | 431 W/m² | - |
| 1777611170 | 35.56° C | 48% | 1006 hPa | - | - | 339 W/m² | - |
| 1777610246 | 35.56° C | 48% | 1006 hPa | - | - | 431 W/m² | - |
| 1777609322 | 36.11° C | 49% | 1006 hPa | - | - | 309 W/m² | - |
| 1777608397 | 35.56° C | 50% | 1006 hPa | - | - | 388 W/m² | - |
| 1777607473 | 35° C | 51% | 1007 hPa | - | - | 306 W/m² | - |
| 1777606548 | 34.44° C | 53% | 1007 hPa | - | - | 370 W/m² | - |
| 1777605623 | 33.89° C | 56% | 1007 hPa | - | - | 248 W/m² | - |
| 1777604699 | 33.33° C | 57% | 1007 hPa | - | - | 244 W/m² | - |
| 1777603774 | 32.78° C | 59% | 1007 hPa | - | - | 283 W/m² | - |
| 1777602850 | 32.22° C | 62% | 1007 hPa | - | - | 211 W/m² | - |
| 1777601925 | 31.67° C | 64% | 1007 hPa | - | - | 131 W/m² | - |
| 1777601000 | 31.11° C | 64% | 1007 hPa | - | - | 134 W/m² | - |
| 1777600076 | 30.56° C | 66% | 1007 hPa | - | - | 127 W/m² | - |
| 1777599151 | 30° C | 69% | 1007 hPa | - | - | 111 W/m² | - |
| 1777598761 | 29.44° C | 69% | 1007 hPa | - | - | 39 W/m² | - |
| 1777597837 | 29.44° C | 70% | 1007 hPa | - | - | 40 W/m² | - |
| 1777596912 | 28.89° C | 73% | 1006 hPa | - | - | 35 W/m² | - |
| 1777595988 | 28.89° C | 75% | 1006 hPa | - | - | 29 W/m² | - |
| 1777595063 | 28.33° C | 74% | 1006 hPa | - | - | 22 W/m² | - |
| 1777594139 | 28.33° C | 75% | 1006 hPa | - | - | 25 W/m² | - |
| 1777593214 | 27.78° C | 76% | 1006 hPa | - | - | 21 W/m² | - |
| 1777592290 | 28.33° C | 77% | 1005 hPa | - | - | 17 W/m² | - |
| 1777591365 | 28.33° C | 77% | 1005 hPa | - | - | 12 W/m² | - |
* Rain since midnight (hover to see other rain measurements)
** Current wind speed in m/s (hover to see current wind gust speed)